Location: *
(45.5667°N, 2.4833°E)
Time: 14:58:38
(UTC+00:00)

Daily predictions for brighter satellites

Satellite Brightness Start Highest point End
(mag) Time Altitude Azimuth Time Altitude Azimuth Time Altitude Azimuth
TSX-5 4.5 20:06:57 10° SSW 20:11:31 83° ESE 20:17:31 10° NNE
Resurs 01 Rocket 1.7 20:12:16 10° SSE 20:16:42 84° ENE 20:21:11 10° NNW
COSMOS 2406 4.1 20:14:35 10° SSE 20:19:31 30° ESE 20:24:27 10° NE
Cosmos 2184 Rocket 4.3 20:18:15 10° N 20:24:19 54° ENE 20:30:24 10° SSE
Cosmos 1833 Rocket 2.8 20:19:31 10° S 20:24:58 56° ESE 20:30:28 10° NNE
H-2A R/B 2.3 20:22:20 10° NNE 20:26:50 84° WNW 20:31:20 10° SSW
Cosmos 1536 Rocket 3.5 20:26:45 10° S 20:31:02 68° E 20:35:23 10° NNE
Cosmos 1703 3.4 20:28:28 10° S 20:32:12 51° E 20:35:57 10° NNE
CARTOSAT-1 3.7 20:29:44 10° SSE 20:33:59 62° ENE 20:38:15 10° N
Cosmos 1741 Rocket 4.1 20:29:04 10° NNW 20:34:26 85° ENE 20:39:45 10° SSE
USA 245 3.5 20:32:08 10° SE 20:35:51 44° ENE 20:38:54 10° N
Ariane Rocket 3.1 20:32:55 10° SSE 20:38:01 88° WSW 20:43:09 10° NNW
CZ-4B R/B 1.4 20:43:33 10° N 20:46:26 63° WNW 20:49:17 10° SSW
ARIANE 5 R/B 4.1 20:44:14 11° ESE 20:47:37 24° ENE 20:51:08 10° NNE
Terra 2.8 20:44:04 12° SE 20:47:58 33° ENE 20:52:14 10° N
ATLAS 2AS CENTAUR R/B 4.0 20:43:22 10° NW 20:49:24 32° WSW 20:55:07 10° S
SPOT 3 Rocket 3.6 20:44:26 10° SSE 20:49:37 78° ENE 20:54:52 10° NNW
SPOT 5 3.0 20:46:57 13° SE 20:50:39 47° ENE 20:54:49 10° N
USA 276 3.6 20:50:01 10° WNW 20:52:51 34° N 20:55:40 10° ENE
RESURS DK-1 3.1 20:48:58 10° NW 20:52:58 49° WSW 20:56:54 10° S
Cosmos 1455 3.9 20:52:07 10° NNW 20:55:30 31° W 20:58:54 10° SSW
Cosmos 1726 Rocket 4.2 20:54:06 10° N 20:58:11 40° ENE 21:01:15 16° SE
Cosmos 1331 Rocket 4.1 20:56:45 10° SSW 21:02:04 87° WNW 21:07:24 10° NNE
IRAS Rocket 4.3 20:57:24 10° NNE 21:03:02 86° WNW 21:08:34 10° SSW
Cosmos 2082 Rocket 2.5 20:57:44 10° S 21:03:10 47° ESE 21:08:36 10° NE
Cosmos 2074 Rocket 4.2 20:58:25 10° NNW 21:04:40 76° W 21:10:52 10° S
Cosmos 2360 4.3 21:01:24 10° NNW 21:07:08 76° WSW 21:11:58 15° SSE
Helios 1A Rocket 3.0 21:04:55 17° SSE 21:07:58 64° ENE 21:12:04 10° N
Spot 2 Rocket 3.5 21:04:02 14° SSE 21:08:21 76° ENE 21:13:29 10° N
Cosmos 1328 3.9 21:05:03 13° S 21:08:29 58° E 21:12:24 10° NNE
Cosmos 2084 Rocket 3.3 21:07:15 10° NW 21:11:10 79° SW 21:13:53 20° SSE
GEOS 3 Rocket 4.4 21:09:16 13° S 21:13:35 41° WSW 21:18:25 10° NW
Nadezhda 1 Rocket 3.9 21:07:41 10° S 21:13:46 82° E 21:19:51 10° N
Lacrosse 5 4.3 21:13:03 10° WSW 21:14:22 11° WSW 21:15:43 10° SW
Cosmos 1295 Rocket 4.5 21:12:20 10° N 21:18:36 88° W 21:23:57 14° S
X-37B 1.6 21:22:43 10° W 21:25:07 25° SSW 21:25:27 24° SSW
ERS-1 Rocket 3.0 21:22:07 18° SSE 21:25:57 87° WSW 21:31:01 10° NNW
Cosmos 1892 3.3 21:26:27 25° SE 21:28:01 38° E 21:31:33 10° NNE
Cosmos 1302 Rocket 3.9 21:28:58 10° SSW 21:34:10 88° ESE 21:39:23 10° NNE
Cosmos 2228 4.2 21:31:48 10° NNW 21:35:43 38° W 21:39:23 12° SSW
Cosmos 2154 Rocket 4.4 21:32:56 10° NNW 21:39:00 59° W 21:44:32 13° S
Cosmos 1892 Rocket 3.5 21:38:01 18° S 21:41:13 89° E 21:45:36 10° N
Cosmos 968 Rocket 3.5 21:38:04 10° NNW 21:43:18 76° WSW 21:46:30 24° S
Cosmos 1697 Rocket 3.8 21:40:38 10° NW 21:45:44 37° WSW 21:49:50 15° SSW
Cosmos 1980 Rocket 2.3 21:40:57 10° NNW 21:46:38 71° WSW 21:50:07 24° SSE
SL-16 R/B 3.2 21:44:05 10° NNW 21:49:21 37° NE 21:52:57 18° ESE
Cosmos 1408 2.3 21:48:44 31° S 21:50:16 89° W 21:53:45 10° N
Cosmos 2058 Rocket 3.0 21:46:39 10° N 21:51:07 85° E 21:53:20 29° S
Cosmos 1626 Rocket 4.2 21:50:06 29° SE 21:51:30 38° E 21:55:32 10° NNE
ATLAS 5 CENTAUR R/B 1.1 21:50:51 20° SSW 21:53:15 67° SE 21:57:19 10° NE
Resurs 01 Rocket 4.5 21:53:00 10° W 21:53:47 10° W 21:54:36 10° WNW
SL-8 Rocket 4.0 21:48:06 10° N 21:54:20 74° E 21:58:01 26° SSE
CZ-2C R/B 4.1 21:50:28 10° N 21:54:57 63° WNW 21:58:48 13° SSW
Cosmos 2369 4.2 21:49:27 10° NW 21:55:03 55° WSW 21:58:31 23° S
USA 267 3.7 21:49:33 10° ENE 21:55:30 36° SE 21:59:31 19° S
SJ 16-02 2.9 21:57:49 10° N 22:01:33 26° ENE 22:03:35 18° E
SL-4 R/B 3.9 22:04:44 13° E 22:04:44 13° E 22:05:18 10° ENE
In-Cosmos 22 Rocket 4.1 21:59:05 25° S 22:02:22 72° E 22:07:46 10° NNE
COSMOS 2406 4.3 21:58:05 10° SW 22:03:36 46° WNW 22:09:09 10° NNE
Cosmos 1825 2.1 22:07:59 45° SSE 22:08:57 67° E 22:12:41 10° NNE
Cosmos 1867 4.1 22:07:36 10° NW 22:12:50 48° WSW 22:15:18 28° S
Cosmos 2366 rocket 4.0 22:08:21 10° N 22:14:45 87° E 22:18:15 29° S
Cosmos 1869 3.2 22:13:27 10° N 22:17:23 81° E 22:18:25 47° SSE
Cosmos 2218 Rocket 4.0 22:14:46 10° N 22:21:13 84° W 22:24:42 29° S
Cosmos 2322 Rocket 2.8 22:17:59 10° NNW 22:23:30 48° ENE 22:26:28 26° ESE
ARIANE 5 R/B 3.6 22:21:46 24° SSW 22:23:52 38° W 22:28:00 10° NNW
GP-B 3.3 22:20:05 10° N 22:24:29 65° W 22:26:27 32° SSW
Meteor 1-27 4.2 22:19:15 10° NNW 22:24:49 80° W 22:27:27 33° S
Terra 3.2 22:22:57 17° SW 22:25:43 30° W 22:29:54 10° NW
SAR-Lupe-4 3.6 22:25:05 10° N 22:28:40 74° WNW 22:29:35 46° SSW
USA 276 2.0 22:25:48 10° WNW 22:28:42 79° NW 22:28:42 79° NW
USA 234 4.1 22:23:48 10° E 22:30:02 49° NNE 22:36:17 10° NW
FALCON 9 DEB 3.3 22:27:37 10° WNW 22:30:31 53° WSW 22:30:31 53° WSW
BREEZE-M DEB (TANK) 4.0 22:33:16 10° WNW 22:36:19 63° NNE 22:47:20 10° E
Cosmos 2278 4.2 22:31:26 10° NW 22:36:56 48° WSW 22:39:18 30° SSW
Cosmos 1633 2.2 22:39:01 75° SE 22:39:10 78° E 22:42:38 10° NNE
Okean 1-7 Rocket 4.2 22:40:57 28° SW 22:43:01 53° WNW 22:47:26 10° N
Cosmos 1758 Rocket 3.5 22:42:24 51° SSE 22:43:20 68° E 22:47:44 10° NNE
Cosmos 2333 Rocket 3.6 22:39:09 10° N 22:44:15 31° NE 22:48:06 16° ESE
Cosmos 2082 Rocket 3.9 22:42:23 10° WSW 22:47:26 31° NW 22:52:30 10° N
ASTEX 1 4.4 22:43:34 10° N 22:48:18 43° WNW 22:51:09 21° SW
Cosmos 1606 2.8 22:50:08 10° N 22:53:58 62° E 22:54:21 58° ESE
Cosmos-2242 2.9 22:50:06 10° N 22:54:23 88° E 22:55:10 59° SSE
Cosmos 1812 Rocket 3.6 22:50:40 10° NNW 22:55:07 73° W 22:56:09 51° SSW
ADEOS Rocket 3.7 22:53:13 30° SE 22:57:11 68° ENE 23:04:53 10° N
Cosmos 2360 Rocket 2.6 22:52:24 10° NNW 22:58:01 57° ENE 23:00:32 32° SE
Cosmos 1340 Rocket 3.6 22:58:42 35° E 22:58:42 35° E 23:02:21 10° NNE
Gbstr 26 Del rocket 2.9 22:59:00 58° S 22:59:34 65° SE 23:04:25 10° ENE
Cosmos 1602 Rocket 4.1 23:05:35 36° SW 23:06:57 50° WNW 23:11:10 10° N
Cosmos 1821 Rocket 4.0 23:02:42 10° NNW 23:08:54 75° W 23:11:22 38° S
BREEZE-M DEB (TANK) 4.4 23:12:24 22° E 23:12:24 22° E 23:14:23 10° ENE
SL-27 R/B 4.5 23:13:18 17° ENE 23:13:18 17° ENE 23:14:39 10° NE
Cosmos 44 3.2 23:14:09 54° SE 23:14:26 55° ESE 23:18:50 10° NE
Cosmos 1833 4.3 23:14:26 44° SSE 23:15:47 56° ESE 23:21:15 10° NE
Cosmos 972 Rocket 4.4 23:11:20 10° NNW 23:16:33 61° ENE 23:18:41 37° SE
Cosmos 1354 Rocket 4.4 23:13:03 10° NNW 23:18:12 53° WSW 23:19:33 42° SSW
Cosmos 2237 4.3 23:15:07 10° NNW 23:20:48 66° WSW 23:22:30 45° S
ALOS 2 2.5 23:21:37 61° S 23:22:19 80° WSW 23:26:45 10° NNW
Spot 4 4.2 23:21:49 43° SW 23:22:54 52° W 23:27:36 10° NNW
CENTAUR R/B 3.7 23:22:31 23° ESE 23:23:09 23° ESE 23:28:06 10° ENE
ERS-2 2.9 23:19:57 10° NNE 23:22:56 38° E 23:22:56 38° E
Cosmos 2058 3.0 23:29:58 60° SW 23:30:34 70° W 23:34:44 10° N
COSMOS 2428 4.0 23:25:32 10° NNW 23:30:44 35° NE 23:34:37 16° ESE
Nadezhda 3 Rocket 4.2 23:28:02 34° SSW 23:30:45 64° W 23:36:55 10° N
Cosmos 1777 Rocket 4.1 23:26:40 10° NNW 23:31:53 62° WSW 23:33:07 48° SSW
H-2A R/B 3.6 23:27:52 10° N 23:32:04 69° WNW 23:32:48 55° SW
SL-16 R/B 3.0 23:28:15 10° NW 23:33:27 38° WSW 23:34:48 33° SW
Cosmos 1953 Rocket 3.4 23:33:03 65° S 23:33:41 85° E 23:38:07 10° N
Cosmos 2219 Rocket 2.9 23:28:16 10° NNW 23:33:47 49° ENE 23:36:40 26° ESE
ATLAS 5 CENTAUR R/B 4.1 23:35:26 10° WNW 23:38:17 19° NNW 23:41:25 10° NNE
USA 267 3.4 23:32:18 10° NE 23:38:50 75° NNW 23:45:22 10° WSW
SJ 16-02 2.2 23:36:08 10° NW 23:40:09 35° WSW 23:40:31 34° WSW
SL-4 R/B 2.3 23:40:05 32° W 23:41:25 53° NNW 23:45:02 10° ENE
Cosmos 1825 Rocket 4.1 23:41:10 42° WSW 23:42:03 50° WNW 23:46:18 10° N
Meteor 2-2 Rocket 4.4 23:36:09 10° NNW 23:42:10 70° W 23:44:11 43° SSW
Cosmos 2322 4.2 23:37:23 10° NNW 23:42:57 53° ENE 23:45:45 28° ESE
Cosmos 2221 2.4 23:47:18 10° N 23:51:41 88° E 23:52:14 68° SSE
PSLV R/B 3.7 23:50:03 10° NNE 23:54:48 72° ESE 23:55:36 58° SSE
